Location: Bacea
(45.9500°N, 22.6667°E)
Time: 23:08:55
(UTC+00:00)

Cosmos 1300 - Pass Details

Date: 06 June 2022
Orbit: 506 x 508 km, 82.5° (Epoch: 01 July)

Event Time Altitude Azimuth Distance (km) Brightness Sun altitude
Rises 23:01:59 0° 333° (NNW) 2,620 7.2 -20.9°
Reaches altitude 10° 23:04:51 10° 309° (NW) 1,728 5.7 -20.8°
Maximum altitude 23:07:00 15° 274° (W) 1,449 4.9 -20.8°
Enters shadow 23:07:08 15° 272° (W) 1,449 4.9 -20.8°
